Location: Bu�n Treun
(12.1333°N, 108.3167°E)
Time: 00:15:08
(UTC+00:00)

Cosmos 1703 - Pass Details

Date: 13 July 2020
Orbit: 525 x 539 km, 82.5° (Epoch: 03 August)

Event Time Altitude Azimuth Distance (km) Brightness Sun altitude
Exits shadow 12:27:04 - 182° (S) 1,864 5.8 -16.6°
Reaches altitude 10° 12:27:19 10° 182° (S) 1,759 5.6 -16.7°
Maximum altitude 12:31:11 85° 94° (E) 529 3.1 -17.5°
Drops below altitude 10° 12:35:03 10° 6° (N) 1,758 6.2 -18.4°
Sets 12:37:11 0° 5° (N) 2,647 7.1 -18.8°
